map of KEKS home
KEKS - Airport
Location
City:  Ennis, Montana, United States
Name:Ennis - Big Sky Airport
ICAO:KEKS
FAA LID:EKS

Details
Type:Airport (Airfield)
Use:Public/Civil
Latitude:4516'28"N (45.274361)
Longitude:11138'56"W (-111.648860)
Datum:WGS 1984
Elevation:5422 ft (1653 m)
Variation:12.02E (WMM2015 magnetic declination)
-0.12 annual change
Runways:1
Longest:6601 × 75 ft (2012 × 23 m), paved

Weather
METAR:KEKS 231015Z AUTO 00000KT 10SM OVC007 M16/M19 A3001 RMK AO2
TAF:KEKS 230547Z 2306/2406 VRB06KT P6SM SCT003 BKN015
TEMPO 2306/2309 BKN003
FM231500 VRB06KT P6SM BKN070 BKN150
FM232100 18015KT P6SM FEW070 FEW150

Related Locations
Nearby:
Farthest:RRG: 10649 mi / 17137 km
Plaine Corail [Sir Gatan Duval Airport (Plaine Corail Airport)], Rodrigues Island, MU

Find:

   beyond  
but within

Other Information
Maps:
NOTAMs:
Links:
Sources:

  
flag of United States
flag of Montana
  

Sectional Chart

Flight Planning
at skyvector.com

Satellite Image

Google Maps Satellite view

 

Copyright © 2004-2018 Karl L. Swartz. All rights reserved.
The Great Circle Mapper name and logo are trademarks of the Great Circle Mapper.
All other trademarks mentioned herein belong to their respective owners.
Please see credits for attibutions and further copyright information.

  Follow gcmap on Facebook Follow gcmap on Twitter Follow gcmap on Google+ GCmap on LinkedIn

hCard Microformat

Geo Microformat